{"data":{"norad_id":65343,"intl_designator":"2025-189W","name":"STARLINK-34838","alt_names":[],"object_type":"PAYLOAD","status":"ACTIVE","operator":null,"country":"US","launch_date":"2025-08-27","launch_site_code":"AFETR","launch_vehicle":null,"mission":null,"orbit_class":"UNKNOWN","rcs_meters":null,"size_class":null,"mass_kg":null,"dimensions":null,"purposes":["comms"],"wikipedia_slug":null,"has_3d_model":false,"image_url":null,"decayed_at":null,"tle_current":{"epoch":"2026-09-20T14:51:40.234752Z","epoch_age_seconds":107517,"freshness":"FRESH","line1":"1 65343U 25189W   26263.61921568  .00014488  00000+0  43897-3 0  9991","line2":"2 65343  53.1586  19.0193 0001237  83.8340 276.2804 15.34408356 60995","mean_motion":15.34408356,"eccentricity":0.0001237,"inclination_deg":53.1586,"raan_deg":19.0193,"arg_perigee_deg":83.834,"mean_anomaly_deg":276.2804,"bstar":0.00043897,"rev_number":6099,"period_min":93.847247010169,"perigee_km":461.83219566133,"apogee_km":463.52461339241,"semimajor_km":6840.8154045269,"source":"CELESTRAK","updated_at":"2026-09-21T09:00:35.573145Z"}}}